This is the latest recevied weather packets stored in our database for station/object WC4PEM-6. If no packets are shown the sender has not sent any weather packets the latest 10 day(s).
| Time | Temp. | Humidity | Pressure | Rain* | Wind** | Luminosity | Snow |
|---|---|---|---|---|---|---|---|
| 1778116802 | 28.89° C | 57% | 1015.5 hPa | 0 mm | - | - | - |
| 1778116502 | 28.89° C | 57% | 1015.3 hPa | 0 mm | - | - | - |
| 1778116386 | 28.89° C | 55% | 1015.5 hPa | 0 mm | - | - | - |
| 1778116202 | 28.89° C | 55% | 1015.5 hPa | 0 mm | - | - | - |
| 1778116182 | 28.89° C | 53% | 1015.4 hPa | 0 mm | - | - | - |
| 1778115902 | 28.89° C | 53% | 1015.4 hPa | 0 mm | - | - | - |
| 1778115602 | 29.44° C | 53% | 1015.3 hPa | 0 mm | - | - | - |
| 1778115586 | 29.44° C | 53% | 1015.2 hPa | 0 mm | - | - | - |
| 1778115302 | 29.44° C | 53% | 1015.2 hPa | 0 mm | - | - | - |
| 1778115006 | 30° C | 50% | 1015.1 hPa | 0 mm | - | - | - |
| 1778115002 | 29.44° C | 52% | 1015.1 hPa | 0 mm | - | - | - |
| 1778114702 | 30° C | 50% | 1015.1 hPa | 0 mm | - | - | - |
| 1778114402 | 30° C | 50% | 1015.1 hPa | 0 mm | - | - | - |
| 1778114102 | 30.56° C | 46% | 1014.9 hPa | 0 mm | - | - | - |
| 1778113802 | 30.56° C | 45% | 1014.5 hPa | 0 mm | - | - | - |
| 1778113694 | 30.56° C | 44% | 1014.5 hPa | 0 mm | - | - | - |
| 1778113502 | 30.56° C | 44% | 1014.5 hPa | 0 mm | - | - | - |
| 1778113263 | 31.11° C | 42% | 1014.5 hPa | 0 mm | - | - | - |
| 1778113202 | 31.11° C | 42% | 1014.6 hPa | 0 mm | - | - | - |
| 1778112902 | 31.11° C | 42% | 1014.5 hPa | 0 mm | - | - | - |
| 1778112797 | 31.67° C | 41% | 1014.5 hPa | 0 mm | - | - | - |
| 1778112602 | 31.67° C | 41% | 1014.5 hPa | 0 mm | - | - | - |
| 1778112410 | 31.67° C | 40% | 1014.3 hPa | 0 mm | - | - | - |
| 1778112302 | 31.67° C | 40% | 1014.3 hPa | 0 mm | - | - | - |
| 1778112002 | 31.67° C | 40% | 1014.5 hPa | 0 mm | - | - | - |
* Rain latest hour (hover to see other rain measurements)
** Current wind speed in m/s (hover to see current wind gust speed)